Погода Аксаково

Погода Аксаково : погода сейчас, прогноз погоды и архив. Всё, что Вы хотите узнать о погоде Аксаково!

Поиск расширенной информации на нашем сайте:

Другие новости

Новости СМИ2

Главная страница сайта

Новости сайта

03.07.2017

Напоминаем, что на нашем специализированном сайте Метеоцентр.Азия вы можете получить высокодетализированные автоматические прогнозы погоды по пунктам России, СНГ и мира в авиационном формате (включающие направление и скорость ветра, видимость, явления погоды, количество и форму облачности, нижнюю и верхнюю границу облачности).


Погода Аксаково - сегодня

Время (UTC), дата Ветер
(°,м/с) 
Видим.   Явления Облачность Т
(°С)
Тd
(°С)
f(%) Тe
(°С)
Pmin
(гПа)
dP
(гПа)
Po
(мм)
O2
(г/м3)
Тmin Tmax R s Состояние
почвы
12 17.02.18 170 (Ю) 20000 м    ясно 
-4.5 -11.6 58 -6  1040.2  -1  747  307           
15 17.02.18 190 (Ю) 10 км    ясно 
-8.9 -12.7 74 -11  1040.6  -0.4  746  312    -4.5       
18 17.02.18 190 (Ю) 10 км    ясно 
-11.5 -14.6 78 -13  1040.4  -0.6  746  315           
21 17.02.18 190 (Ю) 10 км    ясно 
-11.2 -13.7 82 -13  1039.9  -0.4  746  314           
00 18.02.18 180 (Ю) 10 км    3/0 средняя 
[Ac trans]
-12.4 -14.2 86 -16  1039.5  -0.6  745  316           
03 18.02.18 170 (Ю) 10 км    8/8 600 м 
[Sc]
-12.7 -14.5 86 -16  1039  -0.6  745  316  -13.1      24  неравномерный
сухой снег
100% 
06 18.02.18 170 (Ю) 20000 м    3/3 600 м 
[Sc]
-12.2 -14.4 84 -16  1038.9  745  315  -13.6         
09 18.02.18 170 (Ю) 20000 м    ясно 
-7.5 -12.8 66 -10  1037.9  0.1  745  310           
12 18.02.18 170 (Ю) 20000 м    9/0 верхняя 
[Ci fib]
-6.1 -12.4 61 -9  1036.1  -1.5  743  308           
18 18.02.18 170 (Ю) 10 км    ясно 
-10.2 -13.5 77 -13  1034.2  -1.3  742  312           
21 18.02.18 170 (Ю) 10 км    ясно 
-9.9 -13.1 77 -14  1032.8  -1.3  741  311           
03 19.02.18 160 (Ю) 4000 м  слаб. снег  10/10 300 м 
[Ns]
-11.1 -13.6 82 -15  1029.8  -1.9  738  311  -11.1    0.9  24  неравномерный
сухой снег
100% 
06 19.02.18 170 (Ю) 20000 м  {снег}  9/0 верхняя 
[Ci sp]
-10.2 -13.8 75 -15  1028.7  -0.9  738  310  -11.3         
18 19.02.18 180 (Ю) 10 км    9/0 средняя 
[Ac As]
-7.9 -12.6 69 -11  1024  -1.3  735  306           
21 19.02.18 170 (Ю) 4000 м  слаб. снег  10/0 средняя 
[As op]
-8.9 -13.3 70 -13  1022.4  -1.7  733  307           
00 20.02.18 160 (Ю) 4000 м  слаб. снег  10/0 средняя 
[As op]
-10.1 -12.4 83 -13  1021.1  -1.5  732  307           
03 20.02.18 170 (Ю) 2000 м  снег  10/10 300 м 
[Ns]
-10.5 -12.4 86 -14  1019.5  -1.5  731  307  -10.5       
06 20.02.18 180 (Ю) 4000 м  слаб. снег  10/10 300 м 
[Ns]
-10.4 -12.6 84 -14  1018.8  -0.6  731  307  -10.7         
09 20.02.18 180 (Ю) 20000 м  {снег}  9/0 верхняя 
[Ci sp]
-8.3 -11.8 76 -10  1017.9  -0.6  730  304           
12 20.02.18 220 (ЮЗ) 20000 м  {снег}  9/0 средняя 
[Ac As]
-8.5 -11.5 79 -10  1017.1  -0.7  730  304           
18 20.02.18 200 (Ю) 10 км    10/10 300 м 
[St]
-12.1 -13.7 88 -14  1017.2  -0.2  729  309           
21 20.02.18 240 (ЮЗ) 10 км    10/10 300 м 
[St]
-12.5 -14.4 86 -16  1017  -0.2  729  309           
00 21.02.18 200 (Ю) 10 км    10/0 верхняя 
[Cs]
-14 -15.9 85 -16  1017.5  0.2  729  311           
03 21.02.18 230 (ЮЗ) 4000 м  слаб. снег  10/0 средняя 
[As op]
-12.7 -14.6 86 -16  1017.3  729  309  -14.4    0.3  28  неравномерный
сухой снег
100% 
06 21.02.18 220 (ЮЗ) 20000 м  в посл. час снег  9/0 средняя, верхняя 
[Ac und|Ci sp]
-11.4 -13.3 86 -15  1017.9  0.8  730  308           
Время (UTC), дата Ветер
(°,м/с) 
Видим.   Явления Облачность Т
(°С)
Тd
(°С)
f(%) Тe
(°С)
Pmin
(гПа)
dP
(гПа)
Po
(мм)
O2
(г/м3)
Тmin Tmax R s Состояние
почвы

Для получения пояснительной информации подведите курсор к названию столбца.

ПОГОДА Аксаково - архив

Всё, что Вы хотите узнать о погоде Аксаково - удобно и подробно!

Выберите нужную дату (начиная с 1 января 2015* года) и нажмите кнопку "Найти".
Будут отображены архивные сводки погоды по пункту Аксаково, начиная с указанной даты.


Отображать данные в формате CSV (для использования в таблицах Excel)


Внимание! Наш архив погоды предназначен исключительно для личного некоммерческого использования в познавательных целях. Если Вам необходимы официальные справки о состоянии погоды (для производственных, юридических, коммерческих и т.п. целей), обращайтесь в органы Росгидромета.

*Примечание: данная дата относится к архиву по метеостанциям СССР (Россия, СНГ, Балтия).
Архив по метеостанциям Зарубежной Европы и Азии (кроме Китая) хранится 10 дней, по другим регионам земного шара (Китай, Африка, Америка, Австралия, Океания) - 1 день.

Аксаково - район местоположения метеостанции


Название, широта, долгота, высота метеостанции:
Аксаково 54°ш. 54.2°д. 348 м над ур. моря [Российская Федерация]

Дополнительная информация

В oтличие oт бoльшинства пoгoдных сайтoв мы публикуем пoдрoбную метеoинфoрмацию в детальнoм прoфессиoнальнoм фoрмате.

Характеристики температуры и влажнoсти вoздуха измеряются на высoте 2 м в тени вдали oт зданий и деревьев.
Скoрoсть ветра измеряется на высoте 10 м (на урoвне рoста челoвека скoрoсть ветра ниже в 1.5-2 раза). Если метеoстанция нахoдится в гoрoде или в лесу, тo скoрoсть ветра занижена на 2-4 м/с пo сравнению с oткрытым местoм. Скoрoсть ветра над акватoриями крупных рек и oзёр, а также на вершинах хoлмoв на 2-5 м/с выше, чем в oбычных услoвиях.
Атмoсфернoе давление в разных тoчках местнoсти мoжет значительнo oтличаться oт давления на метеoстанции, в зависимoсти oт услoвий рельефа (при пoдъёме на 10 м давление пoнижается примернo на 1 мм рт.ст.).